Weather History for Mosby, MO

Change the Weather History Date:

Saturday, March 30, 2013

  Actual Average (KMKC) Record (KMKC)
Temperature  
Mean Temperature 55 °F -  
Max Temperature 62 °F 59 °F 78 °F (2012)
Min Temperature 48 °F 40 °F 27 °F (2003)
Degree Days  
Heating Degree Days 10    
Growing Degree Days 5 (Base 50)    
Moisture  
Dew Point 46 °F    
Average Humidity 79    
Maximum Humidity 100    
Minimum Humidity 54    
Precipitation  
Precipitation 0.00 in - - ()
Sea Level Pressure  
Sea Level Pressure 29.97 in    
Wind  
Wind Speed 5 mph (ESE)    
Max Wind Speed 12 mph    
Max Gust Speed 17 mph    
Visibility 9 miles    
Events Rain , Thunderstorm    
Averages and records for this station are not official NWS values.
T = Trace of Precipitation, MM = Missing Value Source: NWS Daily Summary

Daily Weather History Graph

Daily Weather History Graph

Search for Another Location

Airport:

Trip Planner

Search our weather history database for the weather conditions in past years. The results will help you decide how hot, cold, wet, or windy it might be!

Date:

Astronomy

Mar. 30, 2013 Rise Set
Actual Time 7:04 AM CDT 7:39 PM CDT
Civil Twilight 6:37 AM CDT 8:06 PM CDT
Nautical Twilight 6:05 AM CDT 8:38 PM CDT
Astronomical Twilight 5:32 AM CDT 9:11 PM CDT
Moon 11:45 PM CDT (3/30) 9:01 AM CDT (3/30)
Length of Visible Light 13h 29m
Length of Day
12h 35m
Waning Gibbous, 86% of the Moon is Illuminated
Mar 30
Waning Gibbous
Apr 2
Last Quarter
Apr 10
New
Apr 18
First Quarter
Apr 25
Full

Hourly Weather History & Observations

Time (CDT) Temp. Dew Point Humidity Pressure Visibility Wind Dir Wind Speed Gust Speed Precip Events Conditions
12:15 AM 51.8 °F 35.6 °F 54% 30.11 in 10.0 mi ESE 4.6 mph - N/A   Clear
12:35 AM 51.8 °F 35.6 °F 54% 30.10 in 10.0 mi ESE 5.8 mph - N/A   Clear
12:55 AM 51.8 °F 35.6 °F 54% 30.10 in 10.0 mi ESE 5.8 mph - N/A   Clear
1:15 AM 51.8 °F 35.6 °F 54% 30.10 in 10.0 mi ESE 4.6 mph - N/A   Clear
1:35 AM 50.0 °F 35.6 °F 58% 30.10 in 10.0 mi SE 3.5 mph - N/A   Clear
1:55 AM 50.0 °F 35.6 °F 58% 30.10 in 10.0 mi ESE 4.6 mph - N/A   Clear
2:15 AM 50.0 °F 35.6 °F 58% 30.09 in 10.0 mi SE 4.6 mph - N/A   Clear
2:35 AM 50.0 °F 37.4 °F 62% 30.10 in 10.0 mi SE 5.8 mph - N/A   Mostly Cloudy
2:55 AM 50.0 °F 37.4 °F 62% 30.09 in 10.0 mi ESE 4.6 mph - N/A   Overcast
3:15 AM 50.0 °F 37.4 °F 62% 30.08 in 10.0 mi ESE 3.5 mph - N/A   Overcast
3:35 AM 50.0 °F 37.4 °F 62% 30.08 in 10.0 mi Calm Calm - N/A   Overcast
3:55 AM 50.0 °F 37.4 °F 62% 30.07 in 10.0 mi East 4.6 mph - N/A   Mostly Cloudy
4:15 AM 50.0 °F 37.4 °F 62% 30.05 in 10.0 mi East 4.6 mph - N/A   Scattered Clouds
4:35 AM 50.0 °F 37.4 °F 62% 30.05 in 10.0 mi Calm Calm - N/A   Mostly Cloudy
4:55 AM 50.0 °F 39.2 °F 66% 30.03 in 10.0 mi East 6.9 mph - N/A   Overcast
5:15 AM 50.0 °F 41.0 °F 71% 30.02 in 10.0 mi ESE 4.6 mph - N/A Thunderstorm Scattered Clouds
5:35 AM 50.0 °F 41.0 °F 71% 30.01 in 10.0 mi ESE 6.9 mph - N/A   Scattered Clouds
5:55 AM 50.0 °F 41.0 °F 71% 30.00 in 10.0 mi SE 6.9 mph - N/A Thunderstorm Scattered Clouds
6:15 AM 50.0 °F 41.0 °F 71% 29.99 in 10.0 mi ESE 8.1 mph - N/A   Clear
6:35 AM 50.0 °F 41.0 °F 71% 30.00 in 10.0 mi SE 6.9 mph - N/A   Mostly Cloudy
6:55 AM 50.0 °F 41.0 °F 71% 29.99 in 10.0 mi ESE 4.6 mph - N/A Thunderstorm Overcast
7:15 AM 50.0 °F 41.0 °F 71% 29.98 in 10.0 mi ESE 8.1 mph - N/A Thunderstorm Overcast
7:35 AM 50.0 °F 42.8 °F 76% 29.99 in 10.0 mi SE 5.8 mph - N/A   Overcast
7:55 AM 50.0 °F 42.8 °F 76% 29.99 in 10.0 mi ESE 5.8 mph - N/A Thunderstorm Overcast
8:15 AM 50.0 °F 44.6 °F 82% 29.97 in 10.0 mi SE 8.1 mph - N/A   Overcast
8:35 AM 50.0 °F 44.6 °F 82% 29.97 in 10.0 mi SE 6.9 mph - N/A Thunderstorm Overcast
8:55 AM 51.8 °F 44.6 °F 76% 29.96 in 10.0 mi SSE 8.1 mph - N/A Thunderstorm Thunderstorm
9:15 AM 51.8 °F 46.4 °F 82% 29.96 in 10.0 mi SE 4.6 mph - N/A Thunderstorm Thunderstorm
9:35 AM 51.8 °F 46.4 °F 82% 29.96 in 10.0 mi SE 8.1 mph - N/A Thunderstorm Overcast
9:55 AM 51.8 °F 50.0 °F 94% 29.97 in 7.0 mi SE 6.9 mph - N/A Rain , Thunderstorm Rain
10:15 AM 51.8 °F 50.0 °F 94% 29.97 in 10.0 mi SSE 4.6 mph - N/A Thunderstorm Thunderstorm
10:35 AM 51.8 °F 50.0 °F 94% 29.97 in 10.0 mi ESE 3.5 mph - N/A   Drizzle
10:55 AM 51.8 °F 50.0 °F 94% 29.98 in 10.0 mi East 3.5 mph - N/A   Overcast
11:15 AM 51.8 °F 50.0 °F 94% 29.98 in 10.0 mi East 3.5 mph - N/A   Overcast
11:35 AM 51.8 °F 50.0 °F 94% 29.99 in 10.0 mi East 5.8 mph - N/A   Overcast
11:55 AM 51.8 °F 50.0 °F 94% 29.98 in 10.0 mi ESE 4.6 mph - N/A   Overcast
12:15 PM 51.8 °F 50.0 °F 94% 29.98 in 10.0 mi ESE 3.5 mph - N/A   Overcast
12:35 PM 51.8 °F 50.0 °F 94% 29.98 in 10.0 mi ESE 4.6 mph - N/A Rain Light Rain
12:55 PM 51.8 °F 50.0 °F 94% 29.97 in 10.0 mi ESE 6.9 mph - N/A   Overcast
1:15 PM 51.8 °F 50.0 °F 94% 29.95 in 10.0 mi SE 8.1 mph - N/A   Overcast
1:35 PM 53.6 °F 50.0 °F 88% 29.93 in 10.0 mi SSE 11.5 mph 17.3 mph N/A   Overcast
1:55 PM 53.6 °F 51.8 °F 94% 29.93 in 10.0 mi SE 11.5 mph - N/A   Overcast
2:15 PM 53.6 °F 51.8 °F 94% 29.92 in 10.0 mi SE 6.9 mph - N/A   Overcast
2:35 PM 53.6 °F 51.8 °F 94% 29.92 in 10.0 mi SSE 4.6 mph - N/A   Overcast
2:55 PM 55.4 °F 51.8 °F 88% 29.91 in 10.0 mi SE 4.6 mph - N/A   Overcast
3:15 PM 57.2 °F 51.8 °F 82% 29.90 in 10.0 mi ENE 3.5 mph - N/A   Overcast
3:35 PM 57.2 °F 51.8 °F 82% 29.90 in 10.0 mi ENE 3.5 mph - N/A   Overcast
3:55 PM 57.2 °F 51.8 °F 82% 29.90 in 10.0 mi Calm Calm - N/A   Overcast
4:15 PM 59.0 °F 51.8 °F 77% 29.90 in 10.0 mi Calm Calm - N/A   Overcast
4:35 PM 59.0 °F 51.8 °F 77% 29.89 in 10.0 mi Calm Calm - N/A   Overcast
4:55 PM 59.0 °F 51.8 °F 77% 29.89 in 10.0 mi Calm Calm - N/A   Mostly Cloudy
5:15 PM 60.8 °F 51.8 °F 72% 29.88 in 10.0 mi Calm Calm - N/A   Scattered Clouds
5:35 PM 60.8 °F 51.8 °F 72% 29.88 in 10.0 mi Calm Calm - N/A Thunderstorm Scattered Clouds
5:55 PM 62.6 °F 51.8 °F 68% 29.87 in 10.0 mi Calm Calm - N/A   Clear
6:15 PM 60.8 °F 51.8 °F 72% 29.87 in 10.0 mi Calm Calm - N/A   Clear
6:35 PM 60.8 °F 51.8 °F 72% 29.87 in 10.0 mi Calm Calm - N/A   Clear
6:55 PM 60.8 °F 51.8 °F 72% 29.87 in 10.0 mi East 6.9 mph - N/A   Clear
7:15 PM 59.0 °F 51.8 °F 77% 29.88 in 10.0 mi East 3.5 mph - N/A   Clear
7:35 PM 59.0 °F 51.8 °F 77% 29.88 in 10.0 mi ESE 4.6 mph - N/A   Clear
7:55 PM 57.2 °F 51.8 °F 82% 29.88 in 10.0 mi SE 4.6 mph - N/A   Clear
8:15 PM 55.4 °F 51.8 °F 88% 29.88 in 10.0 mi East 3.5 mph - N/A   Clear
8:35 PM 53.6 °F 51.8 °F 94% 29.90 in 10.0 mi ESE 4.6 mph - N/A   Clear
8:55 PM 53.6 °F 51.8 °F 94% 29.90 in 7.0 mi Calm Calm - N/A   Clear
9:15 PM 51.8 °F 50.0 °F 94% 29.91 in 7.0 mi Calm Calm - N/A   Clear
9:35 PM 51.8 °F 50.0 °F 94% 29.91 in 5.0 mi Calm Calm - N/A   Scattered Clouds
9:55 PM 50.0 °F 50.0 °F 100% 29.91 in 4.0 mi Calm Calm - N/A   Mostly Cloudy
10:35 PM 48.2 °F 46.4 °F 93% 29.93 in 2.0 mi Calm Calm - N/A   Scattered Clouds
10:55 PM 50.0 °F 50.0 °F 100% 29.92 in 2.5 mi ENE 4.6 mph - N/A   Mostly Cloudy
11:15 PM 50.0 °F 50.0 °F 100% 29.93 in 3.0 mi North 3.5 mph - N/A   Overcast
11:35 PM 50.0 °F 50.0 °F 100% 29.93 in 3.0 mi NNW 4.6 mph - N/A   Overcast
11:55 PM 50.0 °F 50.0 °F 100% 29.92 in 3.0 mi Calm Calm - N/A   Overcast